STARLINK-2439

Last updated on Sat May 08 2021 00:02:03 GMT+0000 (Coordinated Universal Time)

1 48104U 21027N 21127.58334491 -.00053512 00000-0 -37839-3 0 9990 2 48104 53.0476 191.7859 0002452 25.7447 258.2483 15.73245560 1771

Satellite not in orbit

STARLINK-2439